Weather History for Plant City, FL

Change the Weather History Date:

Monday, December 17, 2012

  Actual Average Record
Temperature  
Mean Temperature 70 °F -  
Max Temperature 82 °F 71 °F 87 °F (1971)
Min Temperature 59 °F 48 °F 25 °F (1968)
Cooling Degree Days 6    
Growing Degree Days 20 (Base 50)    
Moisture  
Dew Point 63 °F    
Average Humidity 57    
Maximum Humidity 78    
Minimum Humidity 45    
Precipitation  
Precipitation 0.00 in - - ()
Sea Level Pressure  
Sea Level Pressure 29.96 in    
Wind  
Wind Speed 4 mph (SSW)    
Max Wind Speed 15 mph    
Max Gust Speed 20 mph    
Visibility 9 miles    
Events      
Averages and records for this station are not official NWS values.
T = Trace of Precipitation, MM = Missing Value Source: NWS Daily Summary

Daily Weather History Graph

Daily Weather History Graph

Search for Another Location

Airport:

Trip Planner

Search our weather history database for the weather conditions in past years. The results will help you decide how hot, cold, wet, or windy it might be!

Date:

Astronomy

Dec. 17, 2012 Rise Set
Actual Time 7:13 AM EST 5:36 PM EST
Civil Twilight 6:48 AM EST 6:02 PM EST
Nautical Twilight 6:18 AM EST 6:31 PM EST
Astronomical Twilight 5:50 AM EST 7:00 PM EST
Moon 10:42 AM EST (12/17) 10:33 PM EST (12/17)
Length of Visible Light 11h 13m
Length of Day
10h 22m
Waxing Crescent, 24% of the Moon is Illuminated
Dec 17
Waxing Crescent
Dec 20
First Quarter
Dec 28
Full
Jan 4
Last Quarter
Jan 11
New

Hourly Weather History & Observations

Time (EST) Temp. Heat Index Dew Point Humidity Pressure Visibility Wind Dir Wind Speed Gust Speed Precip Events Conditions
12:15 AM 64.4 °F - - N/A% 30.01 in 10.0 mi Calm Calm - N/A   Clear
12:35 AM 64.4 °F - - N/A% 30.01 in 10.0 mi Calm Calm - N/A   Clear
12:55 AM 64.4 °F - - N/A% 30.01 in 10.0 mi Calm Calm - N/A   Clear
1:15 AM 62.6 °F - - N/A% 30.01 in 4.0 mi Calm Calm - N/A   Haze
1:35 AM 62.6 °F - - N/A% 29.99 in 10.0 mi ESE 4.6 mph - N/A   Clear
1:55 AM 62.6 °F - - N/A% 29.99 in 10.0 mi SE 4.6 mph - N/A   Clear
2:15 AM 64.4 °F - - N/A% 29.99 in 10.0 mi Calm Calm - N/A   Clear
2:35 AM 62.6 °F - - N/A% 29.99 in 10.0 mi Calm Calm - N/A   Clear
2:55 AM 62.6 °F - - N/A% 29.99 in 10.0 mi Calm Calm - N/A   Scattered Clouds
3:15 AM 62.6 °F - - N/A% 29.98 in 10.0 mi Calm Calm - N/A   Scattered Clouds
3:35 AM 62.6 °F - - N/A% 29.98 in 7.0 mi Calm Calm - N/A   Clear
3:55 AM 62.6 °F - - N/A% 29.97 in 10.0 mi Calm Calm - N/A   Clear
4:15 AM 62.6 °F - - N/A% 29.97 in 7.0 mi Calm Calm - N/A   Clear
4:35 AM 60.8 °F - - N/A% 29.96 in 5.0 mi Calm Calm - N/A   Haze
4:55 AM 60.8 °F - - N/A% 29.96 in 7.0 mi Calm Calm - N/A   Clear
5:15 AM 60.8 °F - - N/A% 29.95 in 7.0 mi SSE 3.5 mph - N/A   Clear
5:35 AM 60.8 °F - - N/A% 29.96 in 2.5 mi SSE 3.5 mph - N/A   Clear
5:55 AM 60.8 °F - - N/A% 29.96 in 7.0 mi SSE 3.5 mph - N/A   Clear
6:15 AM 60.8 °F - - N/A% 29.96 in 7.0 mi SSE 3.5 mph - N/A   Clear
6:35 AM 60.8 °F - - N/A% 29.96 in 4.0 mi SSE 3.5 mph - N/A   Haze
6:55 AM 60.8 °F - - N/A% 29.97 in 5.0 mi Calm Calm - N/A   Haze
7:15 AM 60.8 °F - - N/A% 29.98 in 2.5 mi Calm Calm - N/A   Clear
7:35 AM 59.0 °F - - N/A% 29.98 in 3.0 mi Calm Calm - N/A   Clear
7:55 AM 62.6 °F - - N/A% 29.99 in 5.0 mi Calm Calm - N/A   Haze
8:15 AM 64.4 °F - - N/A% 29.98 in 10.0 mi South 3.5 mph - N/A   Clear
8:35 AM 66.2 °F - - N/A% 29.99 in 10.0 mi South 5.8 mph - N/A   Clear
8:55 AM 69.8 °F - - N/A% 29.99 in 10.0 mi South 5.8 mph - N/A   Clear
9:15 AM 69.8 °F - - N/A% 29.98 in 10.0 mi South 6.9 mph - N/A   Clear
9:35 AM 73.4 °F - - N/A% 29.99 in 10.0 mi South 6.9 mph - N/A   Clear
9:55 AM 73.4 °F - 66.2 °F 78% 29.99 in 10.0 mi South 6.9 mph - N/A   Clear
10:15 AM 75.2 °F - 68.0 °F 78% 29.98 in 10.0 mi South 8.1 mph - N/A   Clear
10:35 AM 77.0 °F - 66.2 °F 69% 29.98 in 10.0 mi SW 10.4 mph - N/A   Clear
10:55 AM 78.8 °F - 66.2 °F 65% 29.97 in 10.0 mi SSW 9.2 mph - N/A   Clear
11:15 AM 78.8 °F - 64.4 °F 61% 29.97 in 10.0 mi SSW 11.5 mph - N/A   Clear
11:35 AM 80.6 °F 82.3 °F 64.4 °F 58% 29.96 in 10.0 mi SSW 10.4 mph - N/A   Scattered Clouds
11:55 AM 82.4 °F 83.4 °F 62.6 °F 51% 29.96 in 10.0 mi SSW 9.2 mph 17.3 mph N/A   Scattered Clouds
12:15 PM 82.4 °F 83.4 °F 62.6 °F 51% 29.95 in 10.0 mi South 8.1 mph - N/A   Clear
12:35 PM 82.4 °F 83.4 °F 62.6 °F 51% 29.94 in 10.0 mi SSW 8.1 mph - N/A   Clear
12:55 PM 82.4 °F 83.4 °F 62.6 °F 51% 29.93 in 10.0 mi SSW 9.2 mph - N/A   Clear
1:15 PM 82.4 °F 83.4 °F 62.6 °F 51% 29.93 in 10.0 mi WSW 10.4 mph 17.3 mph N/A   Scattered Clouds
1:35 PM 80.6 °F 81.8 °F 62.6 °F 54% 29.92 in 10.0 mi WSW 9.2 mph - N/A   Scattered Clouds
1:55 PM 82.4 °F 82.9 °F 60.8 °F 48% 29.91 in 10.0 mi WSW 13.8 mph - N/A   Clear
2:15 PM 82.4 °F 82.9 °F 60.8 °F 48% 29.92 in 10.0 mi WSW 12.7 mph 17.3 mph N/A   Clear
2:35 PM 82.4 °F 83.4 °F 62.6 °F 51% 29.91 in 10.0 mi West 12.7 mph - N/A   Clear
2:55 PM 82.4 °F 83.4 °F 62.6 °F 51% 29.91 in 10.0 mi WSW 15.0 mph - N/A   Clear
3:15 PM 80.6 °F 81.8 °F 62.6 °F 54% 29.91 in 10.0 mi WSW 10.4 mph - N/A   Clear
3:35 PM 82.4 °F 83.4 °F 62.6 °F 51% 29.92 in 10.0 mi West 10.4 mph - N/A   Scattered Clouds
3:55 PM 80.6 °F 81.8 °F 62.6 °F 54% 29.92 in 10.0 mi WSW 12.7 mph 17.3 mph N/A   Clear
4:15 PM 80.6 °F 80.8 °F 57.2 °F 45% 29.93 in 10.0 mi West 15.0 mph - N/A   Clear
4:35 PM 77.0 °F - 62.6 °F 61% 29.94 in 10.0 mi WSW 12.7 mph 19.6 mph N/A   Clear
4:55 PM 77.0 °F - 64.4 °F 65% 29.94 in 10.0 mi WSW 6.9 mph - N/A   Mostly Cloudy
7:35 PM 71.6 °F - - N/A% 29.97 in 10.0 mi WSW 4.6 mph - N/A   Scattered Clouds
7:55 PM 71.6 °F - - N/A% 29.97 in 10.0 mi WSW 4.6 mph - N/A   Mostly Cloudy
8:15 PM 71.6 °F - - N/A% 29.98 in 10.0 mi SW 3.5 mph - N/A   Mostly Cloudy
8:35 PM 71.6 °F - - N/A% 29.97 in 10.0 mi South 3.5 mph - N/A   Mostly Cloudy
8:55 PM 71.6 °F - - N/A% 29.97 in 10.0 mi Calm Calm - N/A   Mostly Cloudy
9:15 PM 71.6 °F - - N/A% 29.96 in 10.0 mi South 3.5 mph - N/A   Mostly Cloudy
9:35 PM 69.8 °F - - N/A% 29.96 in 10.0 mi South 3.5 mph - N/A   Scattered Clouds
9:55 PM 69.8 °F - - N/A% 29.96 in 10.0 mi South 3.5 mph - N/A   Clear
10:15 PM 69.8 °F - - N/A% 29.96 in 10.0 mi South 4.6 mph - N/A   Clear
10:35 PM 69.8 °F - - N/A% 29.95 in 7.0 mi South 5.8 mph - N/A   Clear
10:55 PM 69.8 °F - - N/A% 29.94 in 10.0 mi South 6.9 mph - N/A   Clear
11:15 PM 69.8 °F - - N/A% 29.94 in 10.0 mi South 5.8 mph - N/A   Clear
11:35 PM 69.8 °F - - N/A% 29.92 in 10.0 mi SSE 6.9 mph - N/A   Clear
11:55 PM 69.8 °F - - N/A% 29.92 in 10.0 mi South 5.8 mph - N/A   Scattered Clouds